N263TH U76-KFCM

Flight info

Callsign N263TH
Flight time N/A
Altitude 41000
Route DBS J82 RIXIE ENCEE3
Aircraft C700/L-L/S

Departure

Time N/A
Airport U76

Arrival

Time 2026-04-13 01:13
Airport Flying Cloud Airport (KFCM)
Time Latitude Longitude Altitude Speed Heading
2026-04-12 22:28 43.12891 -115.72857 3162 ft 0 kts 206°
2026-04-12 22:37 43.12874 -115.72846 3162 ft 2 kts 87°
2026-04-12 22:37 43.12885 -115.72800 3163 ft 8 kts 60°
2026-04-12 22:37 43.12927 -115.72762 3162 ft 7 kts 13°
2026-04-12 22:38 43.12963 -115.72731 3162 ft 8 kts 70°
2026-04-12 22:38 43.12939 -115.72638 3164 ft 12 kts 117°
2026-04-12 22:38 43.12895 -115.72521 3167 ft 15 kts 113°
2026-04-12 22:38 43.12842 -115.72374 3166 ft 18 kts 116°
2026-04-12 22:39 43.12811 -115.72289 3167 ft 5 kts 117°
2026-04-12 22:39 43.12804 -115.72273 3165 ft 1 kts 116°
2026-04-12 22:39 43.12805 -115.72265 3166 ft 0 kts 63°
2026-04-12 22:40 43.12816 -115.72257 3169 ft 5 kts 33°
2026-04-12 22:40 43.12849 -115.72229 3166 ft 7 kts 27°
2026-04-12 22:40 43.12872 -115.72249 3166 ft 7 kts 294°
2026-04-12 22:41 43.12968 -115.72512 3169 ft 67 kts 296°
2026-04-12 22:41 43.13289 -115.73399 3171 ft 136 kts 298°
2026-04-12 22:41 43.13786 -115.74713 3605 ft 166 kts 297°
2026-04-12 22:41 43.14343 -115.76173 4467 ft 186 kts 298°
2026-04-12 22:42 43.15061 -115.77876 5074 ft 221 kts 309°
2026-04-12 22:42 43.16443 -115.78816 6164 ft 232 kts 356°
2026-04-12 22:42 43.18006 -115.78155 7313 ft 247 kts 36°
2026-04-12 22:42 43.18979 -115.76216 8441 ft 253 kts 76°
2026-04-12 22:43 43.18922 -115.73825 9575 ft 255 kts 108°
2026-04-12 22:43 43.18314 -115.71524 10693 ft 258 kts 115°
2026-04-12 22:43 43.17633 -115.69247 11851 ft 259 kts 115°
2026-04-12 22:43 43.17081 -115.66877 12946 ft 262 kts 108°
2026-04-12 22:44 43.16780 -115.64377 13966 ft 269 kts 100°
2026-04-12 22:44 43.16753 -115.61802 14879 ft 277 kts 91°
2026-04-12 22:44 43.17075 -115.59161 15765 ft 286 kts 79°
2026-04-12 22:44 43.17810 -115.56592 16624 ft 293 kts 70°
2026-04-12 22:45 43.18686 -115.54042 17442 ft 297 kts 71°
2026-04-12 22:45 43.19483 -115.51454 18224 ft 299 kts 74°
2026-04-12 22:45 43.20217 -115.48770 19032 ft 302 kts 75°
2026-04-12 22:45 43.20978 -115.46058 19780 ft 307 kts 74°
2026-04-12 22:46 43.21779 -115.43326 20550 ft 309 kts 73°
2026-04-12 22:46 43.22584 -115.40565 21249 ft 313 kts 73°
2026-04-12 22:46 43.23374 -115.37808 21944 ft 316 kts 73°
2026-04-12 22:46 43.24183 -115.34983 22598 ft 320 kts 73°
2026-04-12 22:47 43.25001 -115.32135 23435 ft 322 kts 73°
2026-04-12 22:47 43.25830 -115.29255 24197 ft 326 kts 73°
2026-04-12 22:47 43.26669 -115.26327 24956 ft 330 kts 73°
2026-04-12 22:47 43.27512 -115.23376 25647 ft 335 kts 73°
2026-04-12 22:48 43.28368 -115.20380 26341 ft 339 kts 73°
2026-04-12 22:48 43.29234 -115.17345 26997 ft 343 kts 73°
2026-04-12 22:48 43.30097 -115.14317 27624 ft 347 kts 73°
2026-04-12 22:48 43.30981 -115.11216 28239 ft 351 kts 73°
2026-04-12 22:49 43.31881 -115.08057 28858 ft 355 kts 73°
2026-04-12 22:49 43.32785 -115.04873 29435 ft 359 kts 73°
2026-04-12 22:49 43.33695 -115.01660 29999 ft 363 kts 73°
2026-04-12 22:49 43.34616 -114.98416 30544 ft 366 kts 73°
2026-04-12 22:50 43.35544 -114.95135 31047 ft 371 kts 73°
2026-04-12 22:50 43.36485 -114.91803 31526 ft 375 kts 73°
2026-04-12 22:50 43.37421 -114.88490 31998 ft 380 kts 73°
2026-04-12 22:50 43.38382 -114.85078 32467 ft 384 kts 73°
2026-04-12 22:51 43.39350 -114.81639 32929 ft 388 kts 73°
2026-04-12 22:51 43.40330 -114.78157 33376 ft 391 kts 73°
2026-04-12 22:51 43.41316 -114.74647 33810 ft 395 kts 73°
2026-04-12 22:51 43.42309 -114.71098 34228 ft 399 kts 73°
2026-04-12 22:52 43.43315 -114.67503 34658 ft 402 kts 72°
2026-04-12 22:52 43.44318 -114.63920 35065 ft 406 kts 72°
2026-04-12 22:52 43.45336 -114.60268 35429 ft 410 kts 72°
2026-04-12 22:52 43.46360 -114.56591 35823 ft 413 kts 72°
2026-04-12 22:53 43.47394 -114.52881 36208 ft 416 kts 72°
2026-04-12 22:53 43.48419 -114.49189 36525 ft 421 kts 72°
2026-04-12 22:53 43.49468 -114.45411 36940 ft 422 kts 72°
2026-04-12 22:53 43.50520 -114.41611 37324 ft 424 kts 72°
2026-04-12 22:54 43.51573 -114.37800 37715 ft 425 kts 72°
2026-04-12 22:54 43.52628 -114.33983 38035 ft 428 kts 72°
2026-04-12 22:54 43.53679 -114.30173 38330 ft 432 kts 72°
2026-04-12 22:54 43.54749 -114.26280 38620 ft 435 kts 72°
2026-04-12 22:55 43.55827 -114.22357 38937 ft 438 kts 72°
2026-04-12 22:55 43.56910 -114.18411 39199 ft 442 kts 72°
2026-04-12 22:55 43.58004 -114.14422 39485 ft 445 kts 72°
2026-04-12 22:55 43.59098 -114.10417 39766 ft 448 kts 72°
2026-04-12 22:56 43.60187 -114.06428 40034 ft 451 kts 72°
2026-04-12 22:56 43.61297 -114.02360 40321 ft 453 kts 72°
2026-04-12 22:56 43.62413 -113.98258 40604 ft 456 kts 72°
2026-04-12 22:56 43.63530 -113.94145 40806 ft 460 kts 72°
2026-04-12 22:57 43.64648 -113.90021 40850 ft 468 kts 72°
2026-04-12 22:57 43.66975 -113.81415 40855 ft 487 kts 72°
2026-04-12 22:58 43.69386 -113.72476 40848 ft 504 kts 72°
2026-04-12 22:58 43.71876 -113.63198 40843 ft 521 kts 72°
2026-04-12 22:59 43.74331 -113.54050 40820 ft 491 kts 72°
2026-04-12 22:59 43.75493 -113.49693 40812 ft 472 kts 73°
2026-04-12 22:59 43.76607 -113.45495 40810 ft 455 kts 73°
2026-04-12 22:59 43.77682 -113.41451 40809 ft 439 kts 73°
2026-04-12 23:00 43.78707 -113.37595 40810 ft 423 kts 73°
2026-04-12 23:00 43.80706 -113.30013 40824 ft 426 kts 73°
2026-04-12 23:01 43.82792 -113.22116 40827 ft 445 kts 73°
2026-04-12 23:01 43.84958 -113.13877 40814 ft 464 kts 73°
2026-04-12 23:02 43.87194 -113.05348 40804 ft 483 kts 73°
2026-04-12 23:02 43.89526 -112.96415 40803 ft 501 kts 73°
2026-04-12 23:03 43.91922 -112.87205 40805 ft 518 kts 73°
2026-04-12 23:03 43.94382 -112.77724 40796 ft 510 kts 73°
2026-04-12 23:03 43.95563 -112.73170 40781 ft 491 kts 73°
2026-04-12 23:04 43.96692 -112.68786 40783 ft 472 kts 73°
2026-04-12 23:04 43.98860 -112.60318 40790 ft 470 kts 74°
2026-04-12 23:05 44.01089 -112.51631 40810 ft 481 kts 73°
2026-04-12 23:05 44.03342 -112.42799 40812 ft 492 kts 73°
2026-04-12 23:06 44.05647 -112.33738 40815 ft 499 kts 73°
2026-04-12 23:06 44.07932 -112.24659 40804 ft 493 kts 76°
2026-04-12 23:07 44.08946 -112.15387 40812 ft 481 kts 94°
2026-04-12 23:07 44.09016 -112.06096 40822 ft 485 kts 94°
2026-04-12 23:08 44.09100 -111.96683 40825 ft 486 kts 94°
2026-04-12 23:08 44.09164 -111.87306 40821 ft 483 kts 94°
2026-04-12 23:09 44.09226 -111.77962 40817 ft 481 kts 94°
2026-04-12 23:09 44.09300 -111.64007 40831 ft 485 kts 94°
2026-04-12 23:10 44.09342 -111.54596 40837 ft 488 kts 94°
2026-04-12 23:10 44.09371 -111.46750 40837 ft 486 kts 94°
2026-04-12 23:11 44.09398 -111.37357 40841 ft 483 kts 94°
2026-04-12 23:11 44.09416 -111.28064 40856 ft 484 kts 95°
2026-04-12 23:12 44.09428 -111.18656 40861 ft 487 kts 95°
2026-04-12 23:12 44.09432 -111.09242 40865 ft 489 kts 95°
2026-04-12 23:13 44.09430 -110.99782 40868 ft 486 kts 95°
2026-04-12 23:13 44.09417 -110.90391 40860 ft 483 kts 95°
2026-04-12 23:14 44.09398 -110.81100 40873 ft 483 kts 95°
2026-04-12 23:14 44.09371 -110.71697 40875 ft 488 kts 95°
2026-04-12 23:15 44.09337 -110.62266 40878 ft 489 kts 95°
2026-04-12 23:15 44.09296 -110.52853 40862 ft 483 kts 96°
2026-04-12 23:16 44.09244 -110.43488 40863 ft 485 kts 96°
2026-04-12 23:16 44.09187 -110.34112 40871 ft 488 kts 96°
2026-04-12 23:17 44.09122 -110.24658 40877 ft 487 kts 96°
2026-04-12 23:17 44.09051 -110.15259 40872 ft 484 kts 96°
2026-04-12 23:18 44.08967 -110.05880 40858 ft 484 kts 96°
2026-04-12 23:18 44.08881 -109.96575 40854 ft 484 kts 96°
2026-04-12 23:19 44.08784 -109.87209 40861 ft 485 kts 96°
2026-04-12 23:19 44.08682 -109.77790 40858 ft 486 kts 96°
2026-04-12 23:20 44.08569 -109.68436 40856 ft 487 kts 96°
2026-04-12 23:20 44.08450 -109.59020 40833 ft 488 kts 96°
2026-04-12 23:21 44.08324 -109.49581 40837 ft 488 kts 97°
2026-04-12 23:21 44.08189 -109.40127 40830 ft 488 kts 97°
2026-04-12 23:22 44.08044 -109.30725 40829 ft 489 kts 97°
2026-04-12 23:22 44.07896 -109.21263 40819 ft 488 kts 97°
2026-04-12 23:23 44.07736 -109.11858 40815 ft 485 kts 97°
2026-04-12 23:23 44.07572 -109.02488 40808 ft 484 kts 97°
2026-04-12 23:24 44.07398 -108.93132 40803 ft 487 kts 97°
2026-04-12 23:24 44.07218 -108.83676 40802 ft 488 kts 97°
2026-04-12 23:25 44.07029 -108.74306 40785 ft 486 kts 97°
2026-04-12 23:25 44.06834 -108.64938 40776 ft 484 kts 98°
2026-04-12 23:26 44.06630 -108.55572 40770 ft 483 kts 98°
2026-04-12 23:26 44.06418 -108.46250 40762 ft 486 kts 98°
2026-04-12 23:27 44.06200 -108.36818 40762 ft 488 kts 98°
2026-04-12 23:27 44.05972 -108.27380 40735 ft 486 kts 98°
2026-04-12 23:28 44.05739 -108.18058 40731 ft 483 kts 98°
2026-04-12 23:28 44.05497 -108.08724 40728 ft 483 kts 98°
2026-04-12 23:29 44.05249 -107.99395 40717 ft 486 kts 98°
2026-04-12 23:29 44.04990 -107.89972 40721 ft 488 kts 98°
2026-04-12 23:30 44.04726 -107.80554 40717 ft 486 kts 98°
2026-04-12 23:30 44.04453 -107.71234 40712 ft 483 kts 98°
2026-04-12 23:31 44.04174 -107.61911 40710 ft 484 kts 98°
2026-04-12 23:31 44.03886 -107.52545 40714 ft 486 kts 98°
2026-04-12 23:32 44.03589 -107.43109 40718 ft 487 kts 98°
2026-04-12 23:32 44.03287 -107.33759 40717 ft 487 kts 98°
2026-04-12 23:33 44.02971 -107.24319 40724 ft 487 kts 98°
2026-04-12 23:33 44.02655 -107.14940 40723 ft 487 kts 98°
2026-04-12 23:34 44.02325 -107.05513 40724 ft 488 kts 98°
2026-04-12 23:34 44.01991 -106.96133 40722 ft 489 kts 98°
2026-04-12 23:35 44.01646 -106.86687 40725 ft 490 kts 98°
2026-04-12 23:35 44.01293 -106.77200 40725 ft 489 kts 98°
2026-04-12 23:36 44.00935 -106.67820 40731 ft 488 kts 98°
2026-04-12 23:36 44.00567 -106.58406 40731 ft 487 kts 98°
2026-04-12 23:37 44.00196 -106.49050 40733 ft 487 kts 98°
2026-04-12 23:37 43.99995 -106.39621 40735 ft 490 kts 94°
2026-04-12 23:38 44.00080 -106.30191 40741 ft 490 kts 94°
2026-04-12 23:38 44.00130 -106.20697 40741 ft 490 kts 94°
2026-04-12 23:39 44.00190 -106.11225 40741 ft 491 kts 94°
2026-04-12 23:39 44.00231 -106.01786 40739 ft 491 kts 94°
2026-04-12 23:40 44.00271 -105.92267 40737 ft 492 kts 94°
2026-04-12 23:40 44.00299 -105.82746 40738 ft 493 kts 94°
2026-04-12 23:41 44.00322 -105.73268 40739 ft 493 kts 95°
2026-04-12 23:41 44.00336 -105.63721 40740 ft 494 kts 95°
2026-04-12 23:42 44.00342 -105.54162 40737 ft 494 kts 95°
2026-04-12 23:43 44.00336 -105.39975 40729 ft 489 kts 95°
2026-04-12 23:43 44.00322 -105.30505 40729 ft 489 kts 95°
2026-04-12 23:44 44.00301 -105.21042 40732 ft 491 kts 95°
2026-04-12 23:44 44.00271 -105.11598 40731 ft 493 kts 95°
2026-04-12 23:45 44.00234 -105.02070 40739 ft 493 kts 95°
2026-04-12 23:45 44.00190 -104.92561 40736 ft 489 kts 95°
2026-04-12 23:46 44.00138 -104.83179 40743 ft 488 kts 95°
2026-04-12 23:46 44.00075 -104.73739 40737 ft 489 kts 95°
2026-04-12 23:47 44.00009 -104.64262 40739 ft 490 kts 95°
2026-04-12 23:47 43.99932 -104.54845 40751 ft 489 kts 94°
2026-04-12 23:48 43.99850 -104.45427 40742 ft 485 kts 95°
2026-04-12 23:48 43.99757 -104.36073 40744 ft 487 kts 94°
2026-04-12 23:49 43.99660 -104.26633 40749 ft 489 kts 95°
2026-04-12 23:49 43.99552 -104.17160 40754 ft 489 kts 94°
2026-04-12 23:50 43.99439 -104.07748 40754 ft 485 kts 95°
2026-04-12 23:50 43.99316 -103.98425 40763 ft 486 kts 95°
2026-04-12 23:51 43.99188 -103.89018 40773 ft 488 kts 95°
2026-04-12 23:51 43.99049 -103.79588 40782 ft 490 kts 95°
2026-04-12 23:52 43.98904 -103.70132 40782 ft 487 kts 95°
2026-04-12 23:52 43.98752 -103.60803 40779 ft 485 kts 95°
2026-04-12 23:53 43.98592 -103.51437 40791 ft 485 kts 95°
2026-04-12 23:53 43.98424 -103.42047 40779 ft 488 kts 95°
2026-04-12 23:54 43.98250 -103.32658 40759 ft 487 kts 95°
2026-04-12 23:54 43.98066 -103.23247 40745 ft 484 kts 95°
2026-04-12 23:55 43.97875 -103.13908 40741 ft 482 kts 95°
2026-04-12 23:55 43.97678 -103.04604 40736 ft 485 kts 95°
2026-04-12 23:56 43.97461 -102.95205 40738 ft 487 kts 96°
2026-04-12 23:56 43.97206 -102.85847 40740 ft 485 kts 96°
2026-04-12 23:57 43.96964 -102.76498 40735 ft 482 kts 96°
2026-04-12 23:57 43.96702 -102.67190 40733 ft 482 kts 96°
2026-04-12 23:58 43.96442 -102.57918 40736 ft 484 kts 96°
2026-04-12 23:58 43.96168 -102.48548 40739 ft 486 kts 96°
2026-04-12 23:59 43.95889 -102.39202 40722 ft 485 kts 96°
2026-04-12 23:59 43.95601 -102.29854 40720 ft 481 kts 96°
2026-04-13 00:00 43.95356 -102.22139 40716 ft 481 kts 96°
2026-04-13 00:00 43.95055 -102.12816 40720 ft 484 kts 96°
2026-04-13 00:01 43.94695 -102.01954 40720 ft 486 kts 97°
2026-04-13 00:01 43.94429 -101.94119 40715 ft 484 kts 97°
2026-04-13 00:02 43.94108 -101.84867 40703 ft 481 kts 97°
2026-04-13 00:02 43.93778 -101.75589 40701 ft 481 kts 97°
2026-04-13 00:03 43.93440 -101.66340 40704 ft 483 kts 97°
2026-04-13 00:03 43.93093 -101.56979 40706 ft 486 kts 97°
2026-04-13 00:04 43.92737 -101.47601 40709 ft 485 kts 97°
2026-04-13 00:04 43.92378 -101.38342 40704 ft 481 kts 97°
2026-04-13 00:05 43.92009 -101.29071 40700 ft 481 kts 97°
2026-04-13 00:05 43.91632 -101.19746 40706 ft 486 kts 97°
2026-04-13 00:06 43.91248 -101.10427 40708 ft 485 kts 97°
2026-04-13 00:06 43.90856 -101.01103 40706 ft 484 kts 97°
2026-04-13 00:07 43.90459 -100.91843 40704 ft 483 kts 97°
2026-04-13 00:07 43.90047 -100.82468 40701 ft 490 kts 97°
2026-04-13 00:08 43.89625 -100.72950 40711 ft 494 kts 97°
2026-04-13 00:08 43.89199 -100.63551 40703 ft 488 kts 97°
2026-04-13 00:09 43.88764 -100.54175 40697 ft 489 kts 97°
2026-04-13 00:09 43.88320 -100.44721 40702 ft 492 kts 97°
2026-04-13 00:10 43.87867 -100.35270 40706 ft 492 kts 97°
2026-04-13 00:10 43.87409 -100.25827 40706 ft 490 kts 97°
2026-04-13 00:11 43.86942 -100.16431 40700 ft 487 kts 97°
2026-04-13 00:11 43.86473 -100.07117 40698 ft 487 kts 97°
2026-04-13 00:12 43.85992 -99.97720 40703 ft 490 kts 97°
2026-04-13 00:12 43.85499 -99.88258 40706 ft 492 kts 97°
2026-04-13 00:13 43.85000 -99.78815 40706 ft 490 kts 98°
2026-04-13 00:13 43.84497 -99.69469 40712 ft 487 kts 98°
2026-04-13 00:14 43.83985 -99.60100 40714 ft 487 kts 98°
2026-04-13 00:14 43.83467 -99.50761 40716 ft 490 kts 98°
2026-04-13 00:15 43.82936 -99.41306 40730 ft 492 kts 98°
2026-04-13 00:15 43.82397 -99.31877 40724 ft 490 kts 98°
2026-04-13 00:16 43.81857 -99.22547 40725 ft 488 kts 98°
2026-04-13 00:16 43.81308 -99.13202 40723 ft 486 kts 98°
2026-04-13 00:17 43.80750 -99.03843 40722 ft 487 kts 98°
2026-04-13 00:17 43.80183 -98.94452 40727 ft 491 kts 98°
2026-04-13 00:18 43.79608 -98.85060 40718 ft 491 kts 98°
2026-04-13 00:18 43.79027 -98.75684 40712 ft 486 kts 98°
2026-04-13 00:19 43.78442 -98.66408 40708 ft 487 kts 98°
2026-04-13 00:19 43.77846 -98.57044 40709 ft 490 kts 98°
2026-04-13 00:20 43.77239 -98.47631 40697 ft 490 kts 98°
2026-04-13 00:20 43.76627 -98.38272 40690 ft 485 kts 98°
2026-04-13 00:21 43.76013 -98.29016 40698 ft 487 kts 98°
2026-04-13 00:21 43.75384 -98.19619 40700 ft 491 kts 98°
2026-04-13 00:22 43.74747 -98.10230 40700 ft 489 kts 98°
2026-04-13 00:22 43.74105 -98.00889 40697 ft 486 kts 98°
2026-04-13 00:23 43.73463 -97.91650 40693 ft 484 kts 99°
2026-04-13 00:23 43.72808 -97.82352 40697 ft 487 kts 99°
2026-04-13 00:24 43.72141 -97.72981 40701 ft 490 kts 99°
2026-04-13 00:24 43.71467 -97.63598 40699 ft 489 kts 99°
2026-04-13 00:25 43.70790 -97.54315 40694 ft 486 kts 99°
2026-04-13 00:25 43.70108 -97.45057 40691 ft 485 kts 99°
2026-04-13 00:26 43.69415 -97.35756 40693 ft 487 kts 99°
2026-04-13 00:26 43.68710 -97.26394 40698 ft 490 kts 99°
2026-04-13 00:27 43.68003 -97.17091 40699 ft 488 kts 99°
2026-04-13 00:27 43.67285 -97.07775 40696 ft 486 kts 100°
2026-04-13 00:28 43.66562 -96.98484 40693 ft 486 kts 100°
2026-04-13 00:28 43.65984 -96.89214 40681 ft 490 kts 92°
2026-04-13 00:29 43.67088 -96.79865 40686 ft 498 kts 74°
2026-04-13 00:29 43.70178 -96.71334 40692 ft 502 kts 55°
2026-04-13 00:29 43.72405 -96.67596 40437 ft 508 kts 46°
2026-04-13 00:30 43.74899 -96.64105 39954 ft 510 kts 45°
2026-04-13 00:30 43.77397 -96.60612 39361 ft 508 kts 45°
2026-04-13 00:30 43.79854 -96.57123 38768 ft 503 kts 46°
2026-04-13 00:30 43.82281 -96.53665 38171 ft 498 kts 46°
2026-04-13 00:31 43.84701 -96.50241 37320 ft 496 kts 46°
2026-04-13 00:31 43.87099 -96.46853 36250 ft 500 kts 46°
2026-04-13 00:31 43.89536 -96.43393 35115 ft 503 kts 46°
2026-04-13 00:31 43.91997 -96.39885 33746 ft 510 kts 47°
2026-04-13 00:32 43.94485 -96.36338 32746 ft 510 kts 46°
2026-04-13 00:32 43.96919 -96.32871 32711 ft 493 kts 46°
2026-04-13 00:32 43.99339 -96.29421 32703 ft 504 kts 46°
2026-04-13 00:32 44.01818 -96.25874 32718 ft 518 kts 46°
2026-04-13 00:33 44.04317 -96.22291 32712 ft 524 kts 46°
2026-04-13 00:33 44.09409 -96.14993 32701 ft 521 kts 46°
2026-04-13 00:34 44.14440 -96.07760 32691 ft 520 kts 46°
2026-04-13 00:34 44.19491 -96.00476 32694 ft 524 kts 46°
2026-04-13 00:35 44.24543 -95.93179 32679 ft 525 kts 46°
2026-04-13 00:35 44.29600 -95.85843 32659 ft 523 kts 46°
2026-04-13 00:36 44.34631 -95.78539 32649 ft 519 kts 46°
2026-04-13 00:36 44.39615 -95.71275 32649 ft 523 kts 46°
2026-04-13 00:37 44.47122 -95.60307 31197 ft 517 kts 46°
2026-04-13 00:37 44.49620 -95.56642 29789 ft 520 kts 46°
2026-04-13 00:37 44.52074 -95.53036 28843 ft 510 kts 45°
2026-04-13 00:38 44.54495 -95.49477 27934 ft 498 kts 45°
2026-04-13 00:38 44.56755 -95.45808 26880 ft 492 kts 52°
2026-04-13 00:38 44.58561 -95.41769 25897 ft 484 kts 62°
2026-04-13 00:38 44.59888 -95.37530 24927 ft 477 kts 70°
2026-04-13 00:39 44.60840 -95.33077 24643 ft 478 kts 74°
2026-04-13 00:39 44.61823 -95.28487 24649 ft 501 kts 73°
2026-04-13 00:39 44.62854 -95.23748 24635 ft 511 kts 73°
2026-04-13 00:39 44.63855 -95.19009 24635 ft 513 kts 74°
2026-04-13 00:40 44.64856 -95.14187 24632 ft 513 kts 74°
2026-04-13 00:40 44.65866 -95.09383 24624 ft 510 kts 73°
2026-04-13 00:40 44.66881 -95.04603 24623 ft 511 kts 73°
2026-04-13 00:40 44.67891 -94.99797 24624 ft 512 kts 73°
2026-04-13 00:41 44.68894 -94.94972 24623 ft 514 kts 73°
2026-04-13 00:41 44.69884 -94.90213 24623 ft 512 kts 73°
2026-04-13 00:41 44.70884 -94.85424 24624 ft 510 kts 73°
2026-04-13 00:41 44.71881 -94.80637 24621 ft 509 kts 73°
2026-04-13 00:42 44.72858 -94.75911 24621 ft 489 kts 74°
2026-04-13 00:42 44.73784 -94.71419 24614 ft 469 kts 74°
2026-04-13 00:42 44.74690 -94.67029 24621 ft 469 kts 74°
2026-04-13 00:42 44.75604 -94.62593 24623 ft 474 kts 74°
2026-04-13 00:43 44.76520 -94.58130 24623 ft 473 kts 74°
2026-04-13 00:43 44.77413 -94.53770 24615 ft 460 kts 74°
2026-04-13 00:43 44.78276 -94.49549 24606 ft 438 kts 74°
2026-04-13 00:43 44.79095 -94.45537 24608 ft 412 kts 74°
2026-04-13 00:44 44.79865 -94.41761 24617 ft 393 kts 74°
2026-04-13 00:44 44.81373 -94.34329 24626 ft 404 kts 74°
2026-04-13 00:44 44.82148 -94.30504 24635 ft 405 kts 74°
2026-04-13 00:45 44.82910 -94.26732 24451 ft 381 kts 74°
2026-04-13 00:45 44.83594 -94.23334 22243 ft 352 kts 74°
2026-04-13 00:45 44.84243 -94.20094 19901 ft 342 kts 73°
2026-04-13 00:45 44.84878 -94.16925 17647 ft 331 kts 72°
2026-04-13 00:46 44.85545 -94.13889 15473 ft 317 kts 65°
2026-04-13 00:46 44.86535 -94.11181 13357 ft 303 kts 57°
2026-04-13 00:46 44.87537 -94.08621 11350 ft 295 kts 58°
2026-04-13 00:46 44.88485 -94.06122 10594 ft 279 kts 58°
2026-04-13 00:47 44.89362 -94.03823 10582 ft 262 kts 58°
2026-04-13 00:47 44.90212 -94.01614 10571 ft 251 kts 58°
2026-04-13 00:47 44.91036 -93.99476 10582 ft 245 kts 58°
2026-04-13 00:47 44.91843 -93.97372 10582 ft 242 kts 58°
2026-04-13 00:48 44.92638 -93.95288 10580 ft 240 kts 58°
2026-04-13 00:48 44.93431 -93.93212 10582 ft 239 kts 58°
2026-04-13 00:48 44.94217 -93.91149 10583 ft 239 kts 58°
2026-04-13 00:48 44.94992 -93.89118 10636 ft 235 kts 58°
2026-04-13 00:49 44.95761 -93.87102 10750 ft 230 kts 58°
2026-04-13 00:49 44.96272 -93.85766 10833 ft 235 kts 58°
2026-04-13 00:49 44.97039 -93.83748 10961 ft 231 kts 58°
2026-04-13 00:49 44.97811 -93.81725 11033 ft 248 kts 58°
2026-04-13 00:50 44.98991 -93.78646 11038 ft 286 kts 59°
2026-04-13 00:50 44.99916 -93.76187 11016 ft 278 kts 59°
2026-04-13 00:50 45.00523 -93.74576 10833 ft 275 kts 59°
2026-04-13 00:50 45.01474 -93.72086 9832 ft 301 kts 59°
2026-04-13 00:51 45.02499 -93.69397 8757 ft 326 kts 60°
2026-04-13 00:51 45.03566 -93.66562 8235 ft 325 kts 61°
2026-04-13 00:51 45.04625 -93.63748 7714 ft 324 kts 61°
2026-04-13 00:51 45.05686 -93.60943 7229 ft 321 kts 60°
2026-04-13 00:52 45.06741 -93.58155 6729 ft 319 kts 61°
2026-04-13 00:52 45.07781 -93.55401 6297 ft 316 kts 61°
2026-04-13 00:52 45.08798 -93.52695 5812 ft 314 kts 61°
2026-04-13 00:52 45.09820 -93.49981 5333 ft 311 kts 62°
2026-04-13 00:53 45.10834 -93.47282 5006 ft 304 kts 62°
2026-04-13 00:53 45.11802 -93.44698 5001 ft 293 kts 62°
2026-04-13 00:53 45.12776 -93.42101 5002 ft 303 kts 62°
2026-04-13 00:53 45.13749 -93.39508 5005 ft 299 kts 62°
2026-04-13 00:54 45.14739 -93.36960 4989 ft 293 kts 57°
2026-04-13 00:54 45.15816 -93.34531 4984 ft 287 kts 59°
2026-04-13 00:54 45.16816 -93.32099 4993 ft 283 kts 59°
2026-04-13 00:54 45.17794 -93.29678 4993 ft 282 kts 60°
2026-04-13 00:55 45.18769 -93.27261 4994 ft 283 kts 59°
2026-04-13 00:55 45.19725 -93.24888 4719 ft 282 kts 60°
2026-04-13 00:55 45.20704 -93.22473 4383 ft 280 kts 60°
2026-04-13 00:55 45.21673 -93.20091 4084 ft 277 kts 60°
2026-04-13 00:56 45.22636 -93.17734 3817 ft 274 kts 60°
2026-04-13 00:56 45.23595 -93.15413 3510 ft 271 kts 59°
2026-04-13 00:56 45.24547 -93.13116 3183 ft 269 kts 60°
2026-04-13 00:56 45.25486 -93.10871 2859 ft 266 kts 60°
2026-04-13 00:57 45.26431 -93.08644 2646 ft 260 kts 60°
2026-04-13 00:57 45.27355 -93.06493 2609 ft 250 kts 59°
2026-04-13 00:57 45.28260 -93.04355 2616 ft 256 kts 59°
2026-04-13 00:57 45.29171 -93.02140 2621 ft 261 kts 59°
2026-04-13 00:58 45.30084 -92.99904 2627 ft 260 kts 60°
2026-04-13 00:58 45.30982 -92.97712 2626 ft 260 kts 59°
2026-04-13 00:58 45.31893 -92.95491 2624 ft 259 kts 60°
2026-04-13 00:58 45.32803 -92.93284 2624 ft 259 kts 59°
2026-04-13 00:59 45.33723 -92.91075 2623 ft 259 kts 60°
2026-04-13 00:59 45.34614 -92.88855 2611 ft 256 kts 71°
2026-04-13 00:59 45.34710 -92.86404 2620 ft 248 kts 109°
2026-04-13 00:59 45.33784 -92.84470 2621 ft 240 kts 147°
2026-04-13 01:00 45.32248 -92.83705 2631 ft 233 kts 176°
2026-04-13 01:00 45.30657 -92.83999 2632 ft 232 kts 202°
2026-04-13 01:00 45.29286 -92.85207 2641 ft 230 kts 217°
2026-04-13 01:00 45.28006 -92.86532 2633 ft 229 kts 215°
2026-04-13 01:01 45.26693 -92.87719 2628 ft 218 kts 211°
2026-04-13 01:01 45.25416 -92.88768 2620 ft 204 kts 211°
2026-04-13 01:01 45.24228 -92.89762 2614 ft 193 kts 211°
2026-04-13 01:01 45.23107 -92.90715 2617 ft 185 kts 211°
2026-04-13 01:02 45.21981 -92.91665 2624 ft 193 kts 211°
2026-04-13 01:02 45.20821 -92.92651 2639 ft 199 kts 211°
2026-04-13 01:02 45.19638 -92.93657 2636 ft 198 kts 211°
2026-04-13 01:02 45.18445 -92.94658 2634 ft 200 kts 213°
2026-04-13 01:03 45.17250 -92.95668 2632 ft 199 kts 213°
2026-04-13 01:03 45.16081 -92.96655 2620 ft 194 kts 212°
2026-04-13 01:03 45.14918 -92.97643 2620 ft 196 kts 211°
2026-04-13 01:03 45.13744 -92.98632 2623 ft 196 kts 211°
2026-04-13 01:04 45.12566 -92.99625 2626 ft 197 kts 211°
2026-04-13 01:04 45.11381 -93.00622 2623 ft 199 kts 211°
2026-04-13 01:04 45.10205 -93.01616 2625 ft 200 kts 211°
2026-04-13 01:04 45.09007 -93.02629 2628 ft 200 kts 211°
2026-04-13 01:05 45.07807 -93.03635 2627 ft 199 kts 211°
2026-04-13 01:05 45.06615 -93.04634 2623 ft 198 kts 211°
2026-04-13 01:05 45.05447 -93.05617 2625 ft 197 kts 211°
2026-04-13 01:05 45.04274 -93.06605 2616 ft 195 kts 211°
2026-04-13 01:06 45.03101 -93.07588 2613 ft 195 kts 210°
2026-04-13 01:06 45.01936 -93.08567 2615 ft 194 kts 211°
2026-04-13 01:06 45.00772 -93.09547 2614 ft 195 kts 211°
2026-04-13 01:06 44.99598 -93.10531 2634 ft 196 kts 211°
2026-04-13 01:07 44.98431 -93.11507 2634 ft 197 kts 211°
2026-04-13 01:07 44.97258 -93.12492 2634 ft 196 kts 212°
2026-04-13 01:07 44.96078 -93.13484 2637 ft 197 kts 211°
2026-04-13 01:07 44.94894 -93.14469 2633 ft 197 kts 211°
2026-04-13 01:08 44.93711 -93.15459 2638 ft 196 kts 211°
2026-04-13 01:08 44.92536 -93.16449 2634 ft 197 kts 211°
2026-04-13 01:08 44.91374 -93.17418 2638 ft 195 kts 211°
2026-04-13 01:08 44.90207 -93.18393 2638 ft 194 kts 211°
2026-04-13 01:09 44.89045 -93.19367 2633 ft 193 kts 212°
2026-04-13 01:09 44.87885 -93.20334 2632 ft 193 kts 211°
2026-04-13 01:09 44.86730 -93.21292 2634 ft 193 kts 212°
2026-04-13 01:09 44.85572 -93.22260 2634 ft 194 kts 211°
2026-04-13 01:10 44.84411 -93.23228 2633 ft 193 kts 211°
2026-04-13 01:10 44.83270 -93.24180 2637 ft 193 kts 211°
2026-04-13 01:10 44.82113 -93.25155 2630 ft 193 kts 214°
2026-04-13 01:10 44.81122 -93.26449 2630 ft 195 kts 230°
2026-04-13 01:11 44.80425 -93.28102 2631 ft 197 kts 245°
2026-04-13 01:11 44.80090 -93.29931 2608 ft 189 kts 260°
2026-04-13 01:11 44.80116 -93.31663 2621 ft 168 kts 273°
2026-04-13 01:11 44.80402 -93.33174 2580 ft 153 kts 285°
2026-04-13 01:12 44.80854 -93.34502 2438 ft 145 kts 290°
2026-04-13 01:12 44.81263 -93.35677 2244 ft 129 kts 290°
2026-04-13 01:12 44.81639 -93.36854 2116 ft 132 kts 283°
2026-04-13 01:12 44.81802 -93.38156 2149 ft 136 kts 275°
2026-04-13 01:13 44.82143 -93.39394 2079 ft 143 kts 310°
2026-04-13 01:13 44.82750 -93.40375 2030 ft 120 kts 274°
2026-04-13 01:13 44.82441 -93.41294 932 ft 0 kts 200°